x

South Brooks (46132) Wave Buoy

11:00 - Mon 27th Jun 2016 All times are PDT. -7 hours from GMT.

  • Sig Wave height 7.2ft
  • Peak Period 6s
  • Wind
    27mph, 34mph gusts
  • Sea Temp 56°f
  • Aire Temp 61°f
  • Sea Pressure 1022.5mb
  • South Brooks
  • South Brooks

More Historic Weather Station data

Upgrade to MSW Pro to gain access to the past 30 days of data for over 8000 Wavebouys and Weather Stations around the globe.

Join Pro

Comparision Forecast

View Surf forecast
   
lun 06/27 11:00 7ft 6s 27 34 mph 1022.5mb 56f 61f
10:00 7.5ft 6s 27 34 mph 1022.5mb 56f 60f
9:00 7ft 6s 29 36 mph 1022.1mb 57f 60f
8:00 8ft 6s 29 36 mph 1022mb 57f 60f
7:00 8ft 6s 29 34 mph 1022.1mb 57f 60f
6:00 8ft 6s 27 36 mph 1022.1mb 57f 60f
5:00 8ft 6s 27 34 mph 1022.3mb 57f 60f
4:00 7ft 6s 27 34 mph 1022.7mb 57f 60f
3:00 7.5ft 6s 25 31 mph 1022.9mb 57f 60f
2:00 7ft 6s 27 31 mph 1022.9mb 57f 60f
1:00 7ft 6s 25 29 mph 1022.9mb 57f 59f
12:00 6.5ft 10s 22 29 mph 1022.8mb 57f 59f
11:00 7ft 6s 25 29 mph 1022.6mb 57f 58f
10:00 7ft 6s 27 31 mph 1022mb 57f 58f
9:00 7.5ft 6s 25 31 mph 1022.1mb 57f 58f
8:00 7.5ft 6s 27 34 mph 1021.7mb 57f 58f
7:00 7.5ft 10s 29 34 mph 1021.7mb 57f 59f
6:00 8ft 6s 29 36 mph 1021.6mb 57f 59f
5:00 8ft 6s 29 36 mph 1021.3mb 57f 59f
4:00  -   -  29
mph
1021.2mb - 59f
3:00 8ft 6s 29 36 mph 1021.2mb 57f 59f
2:00 8ft 6s 29 34 mph 1021.5mb 57f 60f
1:00 8ft 6s 29 36 mph 1021.5mb 57f 60f
12:00 8ft 6s 27 34 mph 1021.7mb 57f 60f
dom 06/26 11:00 7.5ft 6s 27 34 mph 1022mb 57f 60f
10:00 7ft 6s 27 34 mph 1022.2mb 57f 60f
9:00 7ft 6s 27 31 mph 1022.3mb 57f 60f
8:00 6.5ft 5s 25 31 mph 1022.7mb 57f 61f
7:00 6.5ft 5s 25 29 mph 1023.1mb 57f 60f
6:00  -   -  25
mph
- - -
5:00 6ft 17s 22 27 mph 1024mb 58f 60f
4:00 6ft 17s 22 27 mph 1024.3mb 58f 60f
3:00 5ft 16s 22 27 mph 1024.6mb 58f 60f
2:00 5ft 17s 20 25 mph 1025mb 58f 60f
1:00 5ft 17s 18 22 mph 1025.1mb 58f 60f
12:00 4.5ft 17s 18 22 mph 1025.2mb 58f 59f
11:00 5ft 17s 16 18 mph 1025.3mb 58f 59f
10:00 4.5ft 17s 16 18 mph 1025.3mb 58f 59f
9:00 4.5ft 17s 16 18 mph 1025.2mb 58f 59f
8:00 4.5ft 17s 16 18 mph 1025.4mb 58f 59f
7:00 4.5ft 18s 16 20 mph 1025.4mb 58f 59f
6:00 4.5ft 18s 13 18 mph 1025.3mb 58f 59f
5:00 4.5ft 17s 13 16 mph 1025mb 58f 59f
4:00 4.5ft 17s 13 16 mph 1025.2mb 58f 59f
3:00 4.5ft 18s 13 16 mph 1025.5mb 58f 59f
2:00 4.5ft 17s 11 13 mph 1025.9mb 58f 60f
1:00 4.5ft 17s 13
mph
1026.1mb 58f 60f
12:00 4.5ft 20s 11 13 mph 1026.2mb 58f 60f
sáb 06/25 11:00 4.5ft 18s 9 11 mph 1026.3mb 58f 59f
10:00 4.5ft 18s 9
mph
1026.3mb 58f 59f
9:00 4.5ft 18s 4
mph
1025.9mb 59f 59f
8:00 4.5ft 15s 4 7 mph 1026mb 59f 60f
7:00 4.5ft 17s 2 4 mph 1026.2mb 59f 60f
6:00 5ft 16s 2 4 mph 1026.4mb 59f 60f
5:00 4.5ft 7s 2 4 mph 1026.6mb 59f 61f
4:00 4.5ft 18s 4
mph
1026.6mb 59f 60f
3:00 4.5ft 18s 4
mph
1026.7mb 59f 61f
2:00 4.5ft 16s 4 7 mph 1026.6mb 58f 61f
1:00 4.5ft 16s 4 7 mph 1026.4mb 58f 60f
12:00 4.5ft 17s 7 9 mph 1026.2mb 58f 61f
11:00 4.5ft 20s 7 9 mph 1026.1mb 58f 62f
10:00 4ft 20s 11 13 mph 1025.8mb 57f 61f
9:00 4.5ft 17s 13 16 mph 1025.7mb 57f 60f
8:00 4ft 17s 13
mph
1025.5mb 57f 59f
7:00 4.5ft 17s 11 13 mph 1025.4mb 57f 59f
6:00 4.5ft 17s 13 16 mph 1025.1mb 57f 59f
5:00 4.5ft 17s 11 13 mph 1025.2mb 57f 60f
4:00 4.5ft 16s 9 11 mph 1025.2mb 57f 59f
3:00 4.5ft 17s 9 11 mph 1025.3mb 57f 61f
2:00 4.5ft 18s 9 11 mph 1025.3mb 58f 59f
1:00 4.5ft 8s 7 9 mph 1025.6mb 58f 58f
12:00 4.5ft 17s 7 9 mph 1025.8mb 58f 58f
vie 06/24 11:00 4.5ft 18s 4 7 mph 1025.8mb 58f 59f
10:00 4.5ft 18s 4 7 mph 1025.7mb 58f 58f
9:00 5ft 17s 7 9 mph 1025.3mb 58f 58f
8:00 4.5ft 7s 4 7 mph 1025.3mb 58f 58f
7:00 5ft 18s 9 11 mph 1024.9mb 58f 58f
6:00 5ft 7s 7 9 mph 1024.7mb 58f 58f
5:00 5ft 17s 9 11 mph 1024.5mb 58f 58f
4:00 5ft 7s 11 13 mph 1024.6mb 58f 58f
3:00 5ft 17s 11 13 mph 1024.3mb 57f 59f
2:00 5ft 18s 13 18 mph 1024.1mb 57f 58f
1:00 5ft 7s 9 11 mph 1023.6mb 57f 60f
12:00 5ft 18s 9
mph
1022.9mb 57f 60f
11:00 5ft 17s 9 11 mph 1022.5mb 57f 60f
10:00 5ft 7s 9
mph
1022.2mb 57f 59f
9:00 5.5ft 7s 9 11 mph 1021.7mb 57f 60f
8:00 5.5ft 7s 13 16 mph 1021.2mb 57f 60f